User: anonymous   Login
Location: *
(17.3280°S, 114.7300°W)
Time: 02:49:10
(UTC+00:00)
Language:

Nadezhda 1 Rocket - Orbit

View from above orbital plane
View from above orbital plane
View from above satellite
View from above satellite

Ground track
Ground track

The orbit data is extracted from the following two-line orbital elements,

1 20104U 89050B   20302.53753828 +.00000104 +00000-0 +88644-4 0  9996
2 20104 082.9563 339.3966 0043105 343.4634 016.5115 13.77316657573618
Epoch (UTC): 28 October 2020 12:54:03
Eccentricity: 0.0043105
inclination: 82.9563°
perigee height: 942 km
apogee height: 1005 km
right ascension of ascending node: 339.3966°
argument of perigee: 343.4634°
revolutions per day: 13.77316657
mean anomaly at epoch: 16.5115°
orbit number at epoch: 57361

The dashed part of the orbit path shows where the satellite is in the earth's shadow,  

DLR